Temperature
-12 -12 -11 -10 -10 -9 -9 -8 -8 -8 -7 -6 -5 -3 -3 -1 0 1 3 5 6 7 8 9 9 10 11 11 12 12 13 13 13 13 13 14 14 14
-12 -11 -11 -10 -10 -9 -9 -8 -8 -8 -7 -6 -5 -4 -3 -2 -1 1 2 3 5 6 7 8 9 9 10 10 11 12 12 12 12 13 13 13 13 14
-11 -11 -10 -10 -9 -9 -8 -8 -8 -7 -7 -7 -5 -4 -4 -3 -1 -0 1 3 4 6 7 7 8 9 9 10 11 11 12 12 12 12 13 13 13 13
-11 -11 -10 -10 -9 -9 -8 -8 -8 -7 -7 -7 -6 -5 -4 -3 -2 -1 1 2 3 5 6 7 8 8 9 9 10 11 11 12 12 12 12 13 13 13
-11 -10 -10 -9 -9 -8 -8 -8 -8 -7 -7 -7 -6 -5 -4 -3 -2 -1 -0 1 3 4 5 6 7 8 8 9 10 10 11 11 12 12 12 12 12 12
-10 -10 -10 -9 -9 -8 -8 -8 -8 -7 -7 -7 -6 -6 -5 -4 -3 -2 -0 1 2 3 4 5 6 7 8 8 9 10 10 11 11 12 12 12 12 12
-10 -10 -10 -9 -9 -9 -9 -8 -8 -8 -7 -7 -7 -6 -6 -5 -4 -3 -2 0 1 2 4 5 6 7 7 8 8 9 10 11 11 12 12 12 12 12
-10 -10 -10 -10 -9 -9 -9 -9 -9 -9 -8 -8 -8 -8 -7 -6 -5 -4 -3 -1 0 1 3 4 5 6 6 7 8 9 10 10 11 11 12 12 12 12
-10 -10 -10 -10 -10 -9 -9 -9 -9 -9 -9 -9 -9 -8 -8 -7 -6 -5 -4 -3 -1 0 2 3 4 5 6 7 8 8 9 10 10 11 11 12 12 12
-11 -11 -11 -10 -10 -10 -10 -9 -9 -9 -9 -9 -9 -9 -8 -8 -7 -6 -5 -3 -1 -0 0 2 3 4 5 6 7 8 9 9 10 10 11 11 12 12
-11 -11 -11 -11 -11 -11 -10 -10 -10 -10 -9 -9 -9 -9 -8 -8 -7 -6 -5 -4 -2 -1 -0 1 2 3 4 5 6 7 8 9 10 10 10 11 11 11
-12 -12 -12 -12 -12 -12 -11 -11 -11 -10 -10 -9 -9 -9 -8 -8 -7 -6 -5 -4 -3 -2 -1 0 2 3 3 4 5 6 7 8 9 9 9 10 10 10
-12 -13 -13 -13 -13 -12 -12 -12 -12 -11 -11 -10 -9 -9 -8 -8 -7 -6 -6 -5 -4 -2 -1 -0 1 2 3 3 4 5 6 7 7 8 8 9 9 10
-13 -13 -13 -13 -13 -13 -13 -13 -12 -11 -11 -10 -10 -9 -9 -8 -7 -7 -6 -5 -4 -3 -2 -1 0 1 2 3 3 4 5 6 6 7 7 7 8 8
-13 -13 -13 -13 -13 -13 -13 -13 -12 -12 -12 -11 -11 -11 -10 -9 -8 -7 -6 -5 -4 -3 -2 -1 -0 1 2 3 3 3 4 4 5 6 6 6 7 7
-13 -13 -13 -13 -13 -13 -13 -13 -13 -13 -13 -12 -12 -11 -10 -9 -8 -7 -6 -5 -4 -4 -2 -2 -1 0 1 2 3 3 3 3 3 4 5 5 5 6
-13 -13 -13 -13 -13 -13 -13 -14 -13 -13 -13 -13 -12 -11 -11 -10 -9 -8 -7 -6 -5 -4 -3 -2 -1 -1 0 1 2 2 3 3 3 3 4 4 4 4
-13 -13 -13 -14 -14 -14 -14 -14 -14 -14 -14 -13 -13 -12 -12 -11 -10 -9 -8 -7 -6 -5 -4 -3 -2 -1 -1 -1 -0 1 2 2 2 2 3 3 2 2
-12 -13 -13 -13 -14 -14 -14 -14 -14 -14 -14 -14 -13 -13 -12 -12 -11 -10 -9 -8 -7 -6 -5 -4 -3 -2 -1 -2 -3 -1 -0 1 1 1 2 2 1 0
-12 -13 -13 -13 -14 -14 -14 -14 -14 -14 -14 -14 -14 -13 -13 -12 -12 -11 -11 -10 -9 -8 -6 -5 -4 -3 -3 -3 -4 -4 -2 -1 0 0 0 0 0 -1
-12 -12 -12 -13 -13 -14 -14 -14 -14 -14 -14 -14 -14 -14 -13 -13 -13 -12 -12 -11 -10 -9 -8 -7 -6 -5 -4 -3 -4 -5 -4 -3 -1 -0 -0 -0 -1 -2
-11 -12 -12 -12 -13 -13 -14 -14 -14 -14 -14 -14 -14 -14 -14 -13 -13 -13 -12 -12 -11 -10 -10 -9 -8 -7 -5 -5 -6 -6 -5 -5 -4 -3 -2 -1 -1 -1
-11 -11 -11 -12 -12 -13 -13 -13 -14 -14 -14 -14 -14 -14 -14 -14 -13 -13 -13 -12 -12 -11 -11 -10 -9 -8 -8 -7 -7 -7 -7 -6 -5 -5 -4 -3 -2 -2
Wind_Speed
11 11 9 9 9 9 9 9 8 10 9 6 4 7 10 11 15 14 13 17 17 15 13 10 6 5 5 8 12 18 24 26 27 27 28 28 27 27
10 10 10 9 9 9 9 8 8 9 9 6 7 10 11 11 16 14 13 17 15 13 13 11 7 5 5 6 9 13 19 23 26 28 30 28 26 25
11 10 12 11 9 8 8 8 7 7 10 9 7 8 9 10 11 11 11 9 9 12 13 11 8 5 4 5 8 11 15 21 25 27 29 29 27 26
12 11 11 10 10 8 7 7 7 7 7 10 8 7 7 9 10 10 9 8 7 11 12 11 9 5 4 5 7 9 13 18 23 26 27 28 28 27
11 10 10 10 9 7 7 6 6 6 6 6 7 6 5 7 9 8 8 6 7 8 9 9 8 4 3 5 7 9 11 15 20 24 26 27 27 27
8 8 8 8 8 8 6 5 5 5 5 5 5 5 5 6 7 7 8 7 7 6 6 6 6 4 3 5 7 8 10 11 15 20 23 25 26 27
9 8 8 11 11 8 6 5 5 5 5 5 5 6 6 8 7 7 8 8 6 3 4 3 3 2 2 3 5 8 10 11 13 16 20 22 24 26
13 11 10 11 15 17 17 16 13 9 7 6 6 7 7 7 7 8 7 6 4 5 5 4 2 1 1 1 3 7 10 11 12 14 17 20 23 26
13 12 11 12 14 11 15 17 16 18 14 8 6 7 8 8 9 8 8 6 5 6 5 3 1 0 0 1 2 6 9 11 12 14 15 18 21 23
14 13 11 11 13 13 11 10 10 10 12 8 6 7 8 8 7 7 8 8 7 5 3 2 1 1 1 2 4 3 8 11 13 14 15 16 17 19
13 14 13 11 19 20 13 11 10 10 14 16 15 14 16 16 12 7 6 5 3 2 1 2 1 1 2 3 5 3 4 9 12 13 14 16 17 16
11 13 18 18 21 20 12 10 11 9 11 12 12 14 11 12 15 7 5 4 3 3 3 3 1 0 1 3 4 4 4 7 10 13 16 19 21 15
10 9 11 21 21 20 17 11 14 12 9 9 8 9 8 8 8 7 5 4 4 4 4 4 2 1 1 1 3 5 5 6 8 11 16 22 24 21
8 7 10 19 19 19 15 17 19 15 9 9 9 9 10 10 10 9 7 5 6 7 8 6 2 1 1 2 2 4 7 7 9 11 11 20 24 27
6 12 15 17 15 13 17 19 15 10 9 10 10 10 9 10 9 8 7 6 4 5 6 5 3 2 1 3 4 3 5 8 9 12 12 12 12 14
4 8 12 13 12 13 13 12 10 10 9 9 9 9 9 9 9 9 7 7 4 4 6 7 2 1 1 3 6 6 5 5 7 13 15 14 14 17
2 3 4 5 7 7 7 8 8 9 9 9 9 10 10 10 10 9 7 7 5 5 6 6 7 10 12 8 7 9 11 12 11 13 16 17 14 13
4 2 3 4 5 6 6 7 7 8 8 8 9 9 10 10 10 9 9 8 7 7 6 4 4 5 7 12 15 8 11 12 11 11 15 18 16 12
3 3 4 4 4 4 4 4 5 6 6 7 8 9 9 9 9 10 10 9 8 7 7 6 4 4 8 6 9 15 9 13 14 13 13 15 16 12
3 4 5 5 4 4 3 3 4 5 5 6 7 8 8 8 9 9 9 10 8 8 8 9 8 6 6 7 5 8 13 9 13 16 16 15 15 18
6 5 5 5 4 4 3 3 3 3 4 5 6 7 7 7 8 9 8 13 10 9 9 9 8 10 6 8 11 11 13 18 14 12 15 16 14 10
7 6 6 5 4 4 3 2 2 2 3 4 4 5 6 6 7 8 8 8 8 8 8 8 8 8 9 13 15 15 15 15 20 23 18 10 7 7
8 7 6 5 4 4 3 3 3 2 1 2 3 4 5 5 6 6 7 8 7 8 8 9 9 11 12 13 14 14 16 15 13 14 16 23 25 26
Wind_Direction
288 286 284 284 283 283 282 283 290 301 307 297 316 331 330 322 326 329 327 327 332 338 339 333 312 263 230 211 207 206 203 201 196 192 195 197 195 193
287 283 284 284 285 283 281 279 276 283 291 300 305 307 314 320 324 328 320 322 325 331 337 336 319 281 241 218 205 201 197 195 192 192 195 194 193 191
289 287 286 287 286 284 280 278 279 280 284 292 291 300 307 318 321 321 314 314 315 330 334 332 323 297 249 223 210 202 195 192 189 190 194 192 192 193
291 290 291 295 293 290 286 285 284 282 282 291 298 305 310 318 317 314 318 318 315 325 330 329 321 300 256 224 210 201 196 192 189 189 191 191 193 193
292 291 294 296 295 296 298 297 292 296 287 291 300 306 307 323 327 323 322 320 321 322 327 328 317 308 279 236 213 202 197 193 192 190 190 189 190 192
310 305 306 309 302 296 305 316 315 312 317 320 321 326 331 333 337 340 336 336 327 322 329 324 321 332 286 238 214 202 198 196 194 193 191 190 189 189
350 345 344 351 355 5 15 7 359 357 355 353 348 345 351 350 349 338 330 326 311 337 338 326 333 348 315 249 217 202 198 197 197 194 191 190 188 188
7 4 6 15 22 24 27 27 27 25 19 9 358 350 342 340 336 333 331 334 325 351 349 319 325 308 291 262 234 208 200 197 196 195 192 190 188 186
9 10 15 20 33 30 26 27 23 23 23 15 358 347 336 339 334 329 325 316 298 318 335 311 330 291 1 2 266 218 204 199 196 194 192 190 189 188
9 9 13 16 29 34 23 19 16 11 11 9 359 346 344 338 337 321 307 300 282 272 271 283 333 355 13 8 354 232 204 197 193 190 187 184 182 182
7 9 12 16 22 28 23 13 12 7 5 7 7 5 2 358 1 347 336 329 313 318 299 274 329 13 19 11 356 16 173 180 181 177 173 168 161 158
4 2 8 16 17 21 22 9 10 3 354 353 355 356 354 352 0 355 333 324 310 305 337 328 320 42 62 14 9 23 83 126 143 149 148 142 134 125
1 357 356 10 14 16 19 14 11 8 352 348 348 348 349 348 343 336 321 300 289 283 318 337 323 14 102 72 25 32 61 88 101 107 118 124 125 124
354 346 356 9 13 13 15 14 13 10 360 358 357 355 351 346 339 329 317 297 269 268 288 293 277 291 138 111 91 57 60 70 90 95 97 101 105 111
354 360 5 11 12 9 11 14 12 6 4 1 356 349 341 333 333 334 330 319 295 291 306 289 253 255 242 145 129 112 87 65 78 93 91 91 97 106
352 354 2 6 11 9 9 8 5 5 6 356 348 342 342 347 353 353 350 349 355 356 352 2 24 94 118 109 124 116 99 101 92 96 95 87 83 89
348 346 346 350 357 358 359 1 1 1 2 354 354 352 354 357 357 356 358 3 17 11 10 23 53 69 63 67 104 106 110 108 108 109 104 95 83 87
351 329 320 327 336 343 348 351 354 358 355 353 355 357 357 357 359 1 7 14 21 22 21 21 58 88 76 49 35 98 109 109 106 103 109 107 97 88
337 297 294 298 304 316 327 335 341 344 348 353 357 357 357 359 4 8 12 15 19 23 21 18 29 87 113 93 28 29 96 113 109 101 99 106 108 104
296 286 285 283 281 287 302 318 330 341 351 355 355 356 358 2 7 11 14 19 21 26 32 32 35 52 95 109 96 49 53 95 114 112 107 102 100 102
300 287 279 277 269 263 271 289 311 333 347 350 354 356 357 2 9 11 14 25 31 33 40 38 38 57 79 94 95 81 67 70 89 109 117 114 110 105
302 290 281 271 260 243 242 253 284 319 343 351 351 354 356 3 9 11 16 22 28 35 43 46 47 63 81 99 101 98 92 84 79 77 72 84 123 131
313 299 284 272 252 228 217 222 232 263 305 338 349 354 359 6 7 13 19 25 32 40 49 59 66 74 81 91 98 98 94 91 87 81 74 81 93 102
Height
1425 1422 1420 1418 1416 1414 1412 1411 1409 1403 1399 1397 1396 1394 1393 1392 1392 1392 1393 1395 1398 1402 1407 1412 1417 1422 1428 1433 1439 1445 1451 1457 1464 1473 1481 1489 1496 1502
1420 1417 1415 1413 1411 1410 1408 1406 1405 1403 1399 1395 1394 1392 1390 1389 1388 1388 1389 1391 1394 1398 1402 1406 1412 1417 1422 1428 1433 1439 1445 1450 1457 1466 1475 1483 1490 1497
1415 1413 1411 1409 1407 1405 1404 1403 1401 1399 1396 1393 1391 1389 1387 1385 1385 1385 1386 1387 1390 1393 1397 1402 1407 1412 1417 1423 1429 1434 1440 1446 1452 1460 1469 1476 1484 1491
1411 1409 1407 1405 1403 1402 1401 1399 1398 1396 1394 1390 1388 1386 1384 1383 1382 1382 1383 1384 1386 1389 1393 1397 1402 1407 1413 1418 1424 1430 1435 1441 1448 1454 1463 1471 1478 1486
1408 1406 1404 1402 1401 1399 1398 1396 1394 1392 1391 1388 1386 1384 1382 1381 1380 1380 1380 1381 1382 1385 1389 1393 1398 1403 1408 1414 1420 1425 1431 1437 1443 1449 1457 1464 1472 1480
1406 1404 1402 1400 1399 1397 1395 1394 1392 1390 1388 1386 1384 1382 1381 1379 1378 1377 1377 1377 1379 1382 1385 1389 1394 1399 1404 1410 1415 1420 1426 1432 1438 1445 1452 1459 1466 1474
1407 1404 1402 1400 1398 1396 1395 1392 1391 1389 1387 1385 1383 1381 1379 1378 1376 1375 1375 1374 1377 1379 1382 1387 1391 1395 1399 1405 1411 1416 1421 1427 1434 1440 1447 1453 1460 1467
1410 1407 1405 1402 1399 1397 1395 1393 1391 1389 1387 1385 1383 1381 1379 1377 1376 1375 1373 1373 1375 1378 1379 1383 1387 1391 1396 1401 1406 1411 1417 1423 1429 1435 1441 1448 1455 1462
1414 1411 1408 1405 1402 1399 1397 1394 1392 1390 1388 1386 1383 1381 1379 1377 1375 1374 1373 1372 1373 1374 1377 1379 1384 1388 1392 1397 1402 1407 1412 1418 1424 1430 1436 1443 1450 1457
1418 1415 1412 1409 1406 1402 1399 1396 1393 1390 1388 1385 1383 1380 1378 1376 1374 1372 1371 1371 1371 1373 1375 1378 1381 1385 1390 1393 1398 1402 1408 1414 1420 1426 1432 1438 1445 1452
1421 1418 1415 1412 1409 1405 1401 1397 1394 1391 1388 1386 1383 1380 1377 1374 1372 1370 1369 1369 1369 1371 1374 1376 1379 1383 1386 1390 1394 1399 1404 1409 1415 1421 1428 1434 1441 1448
1424 1420 1417 1415 1411 1407 1402 1398 1395 1391 1388 1385 1382 1379 1376 1373 1371 1369 1368 1368 1367 1370 1372 1375 1378 1381 1385 1388 1392 1396 1400 1405 1412 1418 1424 1430 1436 1443
1426 1422 1419 1416 1412 1408 1404 1400 1397 1393 1389 1385 1381 1378 1375 1372 1369 1367 1366 1366 1366 1368 1370 1373 1376 1379 1382 1385 1390 1393 1397 1402 1408 1414 1421 1427 1433 1439
1428 1424 1420 1417 1412 1408 1405 1401 1397 1393 1389 1385 1381 1377 1373 1370 1368 1366 1365 1364 1365 1366 1369 1371 1374 1377 1380 1383 1387 1392 1396 1401 1406 1412 1418 1425 1432 1438
1429 1426 1422 1417 1413 1409 1405 1401 1397 1393 1389 1385 1381 1377 1374 1370 1368 1365 1364 1363 1363 1364 1366 1369 1372 1375 1379 1382 1385 1390 1394 1400 1405 1411 1417 1423 1429 1435
1429 1426 1422 1418 1414 1410 1406 1402 1398 1394 1391 1387 1383 1379 1375 1371 1367 1364 1362 1362 1362 1362 1364 1367 1371 1374 1378 1381 1384 1389 1393 1398 1405 1410 1416 1423 1429 1436
1428 1425 1421 1418 1414 1410 1407 1403 1400 1396 1392 1388 1384 1380 1376 1372 1368 1365 1363 1362 1362 1362 1364 1366 1370 1373 1376 1380 1384 1388 1392 1398 1405 1410 1415 1422 1430 1437
1427 1424 1421 1417 1414 1411 1408 1405 1401 1398 1394 1390 1386 1382 1378 1374 1371 1368 1365 1364 1363 1364 1365 1367 1369 1373 1376 1381 1385 1388 1393 1398 1405 1411 1416 1421 1430 1439
1425 1422 1420 1417 1414 1411 1409 1406 1403 1400 1397 1393 1389 1385 1382 1378 1374 1371 1368 1367 1366 1366 1367 1369 1371 1373 1375 1380 1387 1391 1394 1399 1406 1412 1418 1423 1430 1440
1423 1420 1418 1415 1413 1411 1409 1407 1404 1402 1399 1396 1392 1389 1385 1382 1378 1375 1373 1371 1369 1369 1369 1370 1372 1374 1376 1380 1386 1393 1399 1402 1407 1412 1418 1425 1432 1441
1421 1418 1416 1414 1412 1410 1408 1407 1405 1403 1401 1398 1395 1392 1389 1386 1383 1380 1378 1376 1374 1372 1372 1373 1374 1377 1379 1382 1386 1394 1401 1406 1410 1414 1420 1426 1433 1442
1420 1416 1414 1411 1410 1408 1407 1406 1405 1404 1402 1400 1398 1395 1393 1390 1388 1385 1383 1380 1379 1377 1377 1378 1379 1381 1383 1384 1388 1395 1402 1409 1414 1419 1424 1430 1434 1441
1418 1414 1411 1409 1407 1406 1405 1405 1404 1404 1403 1402 1400 1398 1396 1394 1392 1390 1388 1386 1384 1383 1383 1383 1384 1385 1387 1389 1393 1398 1405 1411 1417 1422 1428 1434 1439 1445